Location: Montr�al
(45.5000°N, 73.5830°W)
Time: 01:31:12
(UTC-05:00)

ISS - All Passes

Search period start: 19 December 2014 00:00
Search period end: 29 December 2014 00:00
Orbit: 404 x 415 km, 51.6° (Epoch: 18 December)

Date Brightness Start Highest point End Pass type
(mag) Time Alt. Az. Time Alt. Az. Time Alt. Az.
19 Dec - 13:10:33 10° SSE 13:12:22 14° SE 13:14:11 10° E daylight
19 Dec - 14:45:13 10° WSW 14:48:31 88° SSE 14:51:50 10° ENE daylight
19 Dec - 16:22:25 10° WNW 16:25:24 30° N 16:28:22 10° NE daylight
19 Dec - 17:59:37 10° NW 18:02:34 30° N 18:05:32 10° ENE visible
19 Dec - 19:36:09 10° WNW 19:39:27 90° SSW 19:42:43 10° ESE visible
19 Dec - 21:13:47 10° W 21:15:36 14° SW 21:17:24 10° SSW night (unlit)
20 Dec - 13:54:36 10° SW 13:57:49 53° SE 14:01:03 10° ENE daylight
20 Dec - 15:31:25 10° W 15:34:31 36° NNW 15:37:36 10° NE daylight
20 Dec - 17:08:46 10° WNW 17:11:40 27° N 17:14:32 10° ENE visible
20 Dec - 18:45:25 10° WNW 18:48:40 59° NNE 18:51:55 10° ESE visible
20 Dec - 20:22:21 10° W 20:25:03 24° SW 20:27:44 10° SSE night (unlit)
21 Dec - 13:04:10 10° SSW 13:07:07 31° SE 13:10:05 10° ENE daylight
21 Dec - 14:40:23 10° W 14:43:37 49° NNW 14:46:50 10° NE daylight
21 Dec - 16:17:49 10° WNW 16:20:41 27° N 16:23:32 10° ENE daylight
21 Dec - 17:54:38 10° NW 17:57:47 41° NNE 18:00:56 10° E visible
21 Dec - 19:31:16 10° WNW 19:34:23 40° SW 19:37:28 10° SE visible
22 Dec - 12:14:03 10° S 12:16:26 19° SE 12:18:49 10° E daylight
22 Dec - 13:49:24 10° WSW 13:52:42 73° NNW 13:56:00 10° ENE daylight
22 Dec - 15:26:43 10° WNW 15:29:39 28° N 15:32:34 10° NE daylight
22 Dec - 17:03:47 10° NW 17:06:48 33° NNE 17:09:49 10° E visible
22 Dec - 18:40:18 10° WNW 18:43:35 70° SSW 18:46:50 10° SE visible
22 Dec - 20:18:59 10° WSW 20:19:36 10° SW 20:20:13 10° SW night (unlit)
23 Dec - 11:24:55 10° SSE 11:25:46 11° SE 11:26:37 10° ESE daylight
23 Dec - 12:58:31 10° SW 13:01:48 71° SSE 13:05:05 10° ENE daylight
23 Dec - 14:35:33 10° W 14:38:35 33° NNW 14:41:36 10° NE daylight
23 Dec - 16:12:49 10° NW 16:15:44 28° N 16:18:39 10° ENE daylight
23 Dec - 17:49:23 10° WNW 17:52:40 73° NNE 17:55:56 10° ESE visible
23 Dec - 19:26:35 10° W 19:28:55 18° SW 19:31:14 10° S visible
24 Dec - 12:07:46 10° SW 12:10:54 41° SE 12:14:02 10° ENE daylight
24 Dec - 13:44:19 10° W 13:47:29 41° NNW 13:50:39 10° NE daylight
24 Dec - 15:21:43 10° WNW 15:24:35 27° N 15:27:27 10° ENE daylight
24 Dec - 16:58:26 10° NW 17:01:39 49° NNE 17:04:50 10° E visible
24 Dec - 18:35:10 10° WNW 18:38:07 30° SW 18:41:02 10° SSE visible
25 Dec - 11:17:17 10° SSW 11:20:01 24° SE 11:22:45 10° E daylight
25 Dec - 12:53:07 10° WSW 12:56:23 59° NNW 12:59:39 10° ENE daylight
25 Dec - 14:30:30 10° WNW 14:33:23 27° N 14:36:16 10° ENE daylight
25 Dec - 16:07:25 10° NW 16:10:31 36° NNE 16:13:36 10° E daylight
25 Dec - 17:43:58 10° WNW 17:47:11 53° SW 17:50:23 10° SE visible
26 Dec - 10:27:17 10° SSE 10:29:09 14° SE 10:31:01 10° E daylight
26 Dec - 12:01:59 10° WSW 12:05:17 90° SSE 12:08:36 10° ENE daylight
26 Dec - 13:39:10 10° WNW 13:42:08 30° N 13:45:06 10° NE daylight
26 Dec - 15:16:19 10° NW 15:19:17 30° N 15:22:15 10° ENE daylight
26 Dec - 16:52:50 10° WNW 16:56:08 89° SSW 16:59:25 10° ESE visible
26 Dec - 18:30:29 10° W 18:32:15 14° SW 18:34:02 10° SSW visible
27 Dec - 11:10:58 10° SW 11:14:11 54° SE 11:17:25 10° ENE daylight
27 Dec - 12:47:46 10° W 12:50:52 36° NNW 12:53:57 10° NE daylight
27 Dec - 14:25:06 10° WNW 14:27:59 27° N 14:30:52 10° ENE daylight
27 Dec - 16:01:42 10° WNW 16:04:58 59° NNE 16:08:13 10° ESE daylight
27 Dec - 17:38:37 10° W 17:41:19 24° SW 17:44:00 10° SSE visible
28 Dec - 10:20:08 10° SSW 10:23:06 31° SE 10:26:05 10° ENE daylight
28 Dec - 11:56:21 10° W 11:59:34 49° NNW 12:02:47 10° NE daylight
28 Dec - 13:33:44 10° WNW 13:36:37 27° N 13:39:29 10° ENE daylight
28 Dec - 15:10:32 10° NW 15:13:42 42° NNE 15:16:50 10° E daylight
28 Dec - 16:47:09 10° WNW 16:50:15 40° SW 16:53:21 10° SE visible
